Showing default

FLOCK 4BE 33, 60502

Orbit data source: Space-Track

FLOCK 4BE 33, 60502 is a payload satellite owned by Planet (US) in SSO that was launched on Fri, 16 Aug 2024 UTC via an FALCON 9 launch vehicle from the Air Force Western Test Range (AFWTR). Payload-class satellites include a variety of spacecraft equipped with specific instruments for various scientific and technological missions. These include communications satellites like Starlink; space stations such as the ISS; scientific satellites like the Hubble; Earth observation satellites from companies like Planet Labs, Umbra, and HawkEye 360; GPS; miniature CubeSats for education and research; and military/defense satellites.

Loading next visibility...
Identifier
60502, 2024-149AL
Orbit
SSO
Country
Flag of USUS
Related business
Manufacturer
Planet
Mission
Operational Commercial Imaging
Bus & Motor
CUBESAT 3U, Unknown motor
Mass
5.7 kg wet, 5.7 kg dry
Launch date (UTC)
2024-08-16 (1 year ago)
Launch vehicle
FALCON 9
Launch site
Air Force Western Test Range (AFWTR)
Object type
Payload
Rocket body
Debris
Shape & HBR
Box + 2 Pan, 1.0 m
Radar Cross Section
0.072 m², Medium (>0.1 m² and < 1m²)

Expand to show TLE details & history
Last TLE update: 7 hours ago

TLE from 7 hours ago
0 FLOCK 4BE 33
1 60502U 24149AL  26037.21173811  .00175274  00000-0  27189-2 0  9990
2 60502  97.3764 120.5526 0002794 344.6199  15.4969 15.53368691 82203
Epoch: 2026-02-06T05:04Z
TLE epoch observation values (Epoch: 2026-02-06T05:04:54.172Z)
Latitude
-0.00003°
Longitude
-92.02598°
Altitude
408.208 km
Speed
7.667 km/s
True Right ascension
08h 02m 12s
True Declination
0° 00' 00"
Sunlit
Object was in full shadow at epoch
Visualization orbit readout
Latitude
Unknown
Longitude
Unknown
Altitude
Unknown
Speed
Unknown
Apparent Right ascension
Unknown
Apparent Declination
Unknown
Sunlit
N/A
Visualization observer readout
Local Sidereal Time
14:20:40
Azimuth
Unknown
Elevation
Unknown
Doppler factor
Unknown
Orbital elements
Apogee altitude
405.714 km
Perigee altitude
401.924 km
Semi-major axis
6,781.956 km
Eccentricity
0.00028
Inclination
97.3764°
RAAN
120.5526°
Arg. of periapsis
344.6199°
True anomaly
15.50546°
Mean anomaly
15.4969°
Eccentric anomaly
15.50118°
Mean motion
3.88607 °/min
Orbital period
92.64 mins
BSTAR
0.0027189
Loading maneuver chart data...
Computing Atmospheric mass density...
Loading historical data...
Loading historical data...
Loading historical data...
Loading historical data...
Loading historical data...
Loading historical data...
Loading historical data...

Documentation

Showing up to 5 results
|